User: anonymous   Login
Location: Unspecified
(0.0000°N, 0.0000°E)
Time: 20:41:08
(UTC+00:00)
Language:

GONETS M 08 (M18) - Orbit

View from above orbital plane
View from above orbital plane
View from above satellite
View from above satellite

Ground track
Ground track

The orbit data is extracted from the following two-line orbital elements,

1 40061U 14036A   17172.77802624 +.00000010 +00000-0 +00000-0 0  9990
2 40061 082.5096 186.2357 0030551 108.3645 252.0761 12.42871169134693
Epoch (UTC): 21 June 2017 18:40:21
Eccentricity: 0.0030551
inclination: 82.5096°
perigee height: 1470 km
apogee height: 1518 km
right ascension of ascending node: 186.2357°
argument of perigee: 108.3645°
revolutions per day: 12.42871169
mean anomaly at epoch: 252.0761°
orbit number at epoch: 13469

The dashed part of the orbit path shows where the satellite is in the earth's shadow,  

DLR